STARLINK-33710, 63434

Orbit data source: Space-Track

STARLINK-33710, 63434 is a payload satellite owned by SpaceX/Seattle (US) in LEO that was launched on Fri, 04 Apr 2025 UTC via an FALCON 9 launch vehicle from the Air Force Western Test Range (AFWTR). Payload-class satellites include a variety of spacecraft equipped with specific instruments for various scientific and technological missions. These include communications satellites like Starlink; space stations such as the ISS; scientific satellites like the Hubble; Earth observation satellites from companies like Planet Labs, Umbra, and HawkEye 360; GPS; miniature CubeSats for education and research; and military/defense satellites.

Loading next visibility...
Identifier
63434, 2025-069B
Orbit
LEO
Country
Flag of USUS
Related business
Manufacturer
SpaceX/Seattle
Mission
Operational Commercial Communications
Bus & Motor
STARLINK V2MO, Unknown motor
Mass
575 kg wet, ~530 kg dry
Launch date (UTC)
2025-04-04 (1 year ago)
Launch vehicle
FALCON 9
Launch site
Air Force Western Test Range (AFWTR)
Object type
Payload
Rocket body
Debris
Shape & HBR
Box + 2 Pan, 17.7 m
Radar Cross Section
36.964 m², Large (>1 m²)

Expand to show TLE details & history
Last TLE update: 11 hours ago

TLE from 11 hours ago
0 STARLINK-33710
1 63434U 25069B   26145.27100455  .00021497  00000-0  50189-3 0  9993
2 63434  53.1576 144.3563 0001109  83.6324 276.4808 15.42169304 65160
Epoch: 2026-05-25T06:30Z
TLE epoch observation values (Epoch: 2026-05-25T06:30:14.793Z)
Latitude
-0.00002°
Longitude
163.93345°
Altitude
440.527 km
Speed
7.649 km/s
True Right ascension
09h 37m 25s
True Declination
0° 00' 00"
Sunlit
Object was in daylight at epoch
Visualization orbit readout
Latitude
Unknown
Longitude
Unknown
Altitude
Unknown
Speed
Unknown
Apparent Right ascension
Unknown
Apparent Declination
Unknown
Sunlit
N/A
Visualization observer readout
Local Sidereal Time
03:06:05
Azimuth
Unknown
Elevation
Unknown
Doppler factor
Unknown
Orbital elements
Apogee altitude
440.722 km
Perigee altitude
439.21 km
Semi-major axis
6,818.103 km
Eccentricity
0.00011
Inclination
53.1576°
RAAN
144.3563°
Arg. of periapsis
83.6324°
True anomaly
276.46817°
Mean anomaly
276.4808°
Eccentric anomaly
276.47449°
Mean motion
3.85521 °/min
Orbital period
93.38 mins
BSTAR
0.00050189
Loading maneuver chart data...
Computing Atmospheric mass density...
Loading historical data...
Loading historical data...
Loading historical data...
Loading historical data...
Loading historical data...
Loading historical data...
Loading historical data...

Documentation

Showing up to 5 results
|